owner,sensor,date,latitude,longitude,sea_surface_height_above_sea_level,qcFlag 
TCOON,ioos:station:TCOON:009:1,2019-07-09T13:30:00Z,27.8398,-97.0727,1.758,11111222 
TCOON,ioos:station:TCOON:009:1,2019-07-09T14:30:00Z,27.8398,-97.0727,1.784,11111222 
TCOON,ioos:station:TCOON:009:1,2019-07-09T15:24:00Z,27.8398,-97.0727,1.741,11111222 
TCOON,ioos:station:TCOON:009:1,2019-07-09T16:30:00Z,27.8398,-97.0727,1.762,11111222 
TCOON,ioos:station:TCOON:009:1,2019-07-09T17:30:00Z,27.8398,-97.0727,1.722,11111222 
TCOON,ioos:station:TCOON:009:1,2019-07-09T18:30:00Z,27.8398,-97.0727,1.7,11111222 
TCOON,ioos:station:TCOON:009:1,2019-07-09T19:30:00Z,27.8398,-97.0727,1.682,11111222 
TCOON,ioos:station:TCOON:009:1,2019-07-09T20:30:00Z,27.8398,-97.0727,1.67,11111222 
TCOON,ioos:station:TCOON:009:1,2019-07-09T21:30:00Z,27.8398,-97.0727,1.613,11111222 
TCOON,ioos:station:TCOON:009:1,2019-07-09T22:30:00Z,27.8398,-97.0727,1.617,11111222 
TCOON,ioos:station:TCOON:009:1,2019-07-09T23:24:00Z,27.8398,-97.0727,1.615,11111222 
TCOON,ioos:station:TCOON:009:1,2019-07-10T00:24:00Z,27.8398,-97.0727,1.64,11111222 
TCOON,ioos:station:TCOON:009:1,2019-07-10T01:24:00Z,27.8398,-97.0727,1.692,11111222 
TCOON,ioos:station:TCOON:009:1,2019-07-10T02:24:00Z,27.8398,-97.0727,1.682,11111222 
TCOON,ioos:station:TCOON:009:1,2019-07-10T03:24:00Z,27.8398,-97.0727,1.727,11111222 
TCOON,ioos:station:TCOON:009:1,2019-07-10T04:24:00Z,27.8398,-97.0727,1.718,11111222 
TCOON,ioos:station:TCOON:009:1,2019-07-10T05:24:00Z,27.8398,-97.0727,1.715,11111222 
TCOON,ioos:station:TCOON:009:1,2019-07-10T06:24:00Z,27.8398,-97.0727,1.705,11111222 
TCOON,ioos:station:TCOON:009:1,2019-07-10T07:24:00Z,27.8398,-97.0727,1.669,11111222 
TCOON,ioos:station:TCOON:009:1,2019-07-10T08:24:00Z,27.8398,-97.0727,1.661,11111222 
TCOON,ioos:station:TCOON:009:1,2019-07-10T09:24:00Z,27.8398,-97.0727,1.67,11111222 
TCOON,ioos:station:TCOON:009:1,2019-07-10T10:24:00Z,27.8398,-97.0727,1.671,11111222 
TCOON,ioos:station:TCOON:009:1,2019-07-10T11:24:00Z,27.8398,-97.0727,1.675,11111222 
TCOON,ioos:station:TCOON:009:1,2019-07-10T12:24:00Z,27.8398,-97.0727,1.714,11111222 
TCOON,ioos:station:TCOON:009:1,2019-07-10T13:24:00Z,27.8398,-97.0727,1.705,11111222 
TCOON,ioos:station:TCOON:009:1,2019-07-10T14:24:00Z,27.8398,-97.0727,1.716,11111222 
TCOON,ioos:station:TCOON:009:1,2019-07-10T15:30:00Z,27.8398,-97.0727,1.711,11111222 
TCOON,ioos:station:TCOON:009:1,2019-07-10T16:30:00Z,27.8398,-97.0727,1.714,11111222 
TCOON,ioos:station:TCOON:009:1,2019-07-10T17:30:00Z,27.8398,-97.0727,1.641,11111222 
TCOON,ioos:station:TCOON:009:1,2019-07-10T18:30:00Z,27.8398,-97.0727,1.642,11111222 
TCOON,ioos:station:TCOON:009:1,2019-07-10T19:30:00Z,27.8398,-97.0727,1.586,11111222 
TCOON,ioos:station:TCOON:009:1,2019-07-10T20:30:00Z,27.8398,-97.0727,1.571,11111222 
TCOON,ioos:station:TCOON:009:1,2019-07-10T21:30:00Z,27.8398,-97.0727,1.531,11111222 
TCOON,ioos:station:TCOON:009:1,2019-07-10T22:30:00Z,27.8398,-97.0727,1.538,11111222 
TCOON,ioos:station:TCOON:009:1,2019-07-10T23:24:00Z,27.8398,-97.0727,1.511,11111222 
TCOON,ioos:station:TCOON:009:1,2019-07-11T00:24:00Z,27.8398,-97.0727,1.536,11111222 
TCOON,ioos:station:TCOON:009:1,2019-07-11T01:24:00Z,27.8398,-97.0727,1.58,11111222 
TCOON,ioos:station:TCOON:009:1,2019-07-11T02:24:00Z,27.8398,-97.0727,1.628,11111222 
TCOON,ioos:station:TCOON:009:1,2019-07-11T03:24:00Z,27.8398,-97.0727,1.679,11111222 
TCOON,ioos:station:TCOON:009:1,2019-07-11T04:24:00Z,27.8398,-97.0727,1.705,11111222 
TCOON,ioos:station:TCOON:009:1,2019-07-11T05:24:00Z,27.8398,-97.0727,1.699,11111222 
TCOON,ioos:station:TCOON:009:1,2019-07-11T06:24:00Z,27.8398,-97.0727,1.705,11111222 
TCOON,ioos:station:TCOON:009:1,2019-07-11T07:24:00Z,27.8398,-97.0727,1.738,11111222 
TCOON,ioos:station:TCOON:009:1,2019-07-11T08:24:00Z,27.8398,-97.0727,1.714,11111222 
TCOON,ioos:station:TCOON:009:1,2019-07-11T09:24:00Z,27.8398,-97.0727,1.693,11111222 
TCOON,ioos:station:TCOON:009:1,2019-07-11T10:24:00Z,27.8398,-97.0727,1.698,11111222 
TCOON,ioos:station:TCOON:009:1,2019-07-11T11:24:00Z,27.8398,-97.0727,1.696,11111222 
TCOON,ioos:station:TCOON:009:1,2019-07-11T12:24:00Z,27.8398,-97.0727,1.713,11111222 
TCOON,ioos:station:TCOON:009:1,2019-07-11T13:30:00Z,27.8398,-97.0727,1.719,11111222 
TCOON,ioos:station:TCOON:009:1,2019-07-11T14:30:00Z,27.8398,-97.0727,1.735,11111222 
TCOON,ioos:station:TCOON:009:1,2019-07-11T15:30:00Z,27.8398,-97.0727,1.699,11111222 
TCOON,ioos:station:TCOON:009:1,2019-07-11T16:30:00Z,27.8398,-97.0727,1.655,11111222 
TCOON,ioos:station:TCOON:009:1,2019-07-11T17:30:00Z,27.8398,-97.0727,1.652,11111222 
TCOON,ioos:station:TCOON:009:1,2019-07-11T18:24:00Z,27.8398,-97.0727,1.664,11111222 
TCOON,ioos:station:TCOON:009:1,2019-07-11T19:30:00Z,27.8398,-97.0727,1.601,11111222 
TCOON,ioos:station:TCOON:009:1,2019-07-11T20:30:00Z,27.8398,-97.0727,1.525,11111222 
TCOON,ioos:station:TCOON:009:1,2019-07-11T21:30:00Z,27.8398,-97.0727,1.461,11111222 
TCOON,ioos:station:TCOON:009:1,2019-07-11T22:30:00Z,27.8398,-97.0727,1.451,11111222 
TCOON,ioos:station:TCOON:009:1,2019-07-11T23:24:00Z,27.8398,-97.0727,1.473,11111222 
TCOON,ioos:station:TCOON:009:1,2019-07-12T00:24:00Z,27.8398,-97.0727,1.501,11111222 
TCOON,ioos:station:TCOON:009:1,2019-07-12T01:24:00Z,27.8398,-97.0727,1.463,11111222 
TCOON,ioos:station:TCOON:009:1,2019-07-12T02:24:00Z,27.8398,-97.0727,1.527,11111222 
TCOON,ioos:station:TCOON:009:1,2019-07-12T03:24:00Z,27.8398,-97.0727,1.605,11111222 
TCOON,ioos:station:TCOON:009:1,2019-07-12T04:24:00Z,27.8398,-97.0727,1.688,11111222 
TCOON,ioos:station:TCOON:009:1,2019-07-12T05:24:00Z,27.8398,-97.0727,1.644,11111222 
TCOON,ioos:station:TCOON:009:1,2019-07-12T06:24:00Z,27.8398,-97.0727,1.748,11111222 
TCOON,ioos:station:TCOON:009:1,2019-07-12T07:24:00Z,27.8398,-97.0727,1.724,11111222 
TCOON,ioos:station:TCOON:009:1,2019-07-12T08:24:00Z,27.8398,-97.0727,1.699,11111222 
TCOON,ioos:station:TCOON:009:1,2019-07-12T09:24:00Z,27.8398,-97.0727,1.748,11111222 
TCOON,ioos:station:TCOON:009:1,2019-07-12T10:24:00Z,27.8398,-97.0727,1.749,11111222 
TCOON,ioos:station:TCOON:009:1,2019-07-12T11:24:00Z,27.8398,-97.0727,1.711,11111222 
TCOON,ioos:station:TCOON:009:1,2019-07-12T12:24:00Z,27.8398,-97.0727,1.742,11111222 
TCOON,ioos:station:TCOON:009:1,2019-07-12T13:24:00Z,27.8398,-97.0727,1.733,11111222 
TCOON,ioos:station:TCOON:009:1,2019-07-12T14:24:00Z,27.8398,-97.0727,1.781,11111222 
TCOON,ioos:station:TCOON:009:1,2019-07-12T15:30:00Z,27.8398,-97.0727,1.791,11111222 
TCOON,ioos:station:TCOON:009:1,2019-07-12T16:24:00Z,27.8398,-97.0727,1.746,11111222 
TCOON,ioos:station:TCOON:009:1,2019-07-12T17:24:00Z,27.8398,-97.0727,1.732,11111222 
TCOON,ioos:station:TCOON:009:1,2019-07-12T18:24:00Z,27.8398,-97.0727,1.743,11111222 
TCOON,ioos:station:TCOON:009:1,2019-07-12T19:24:00Z,27.8398,-97.0727,1.705,11111222 
TCOON,ioos:station:TCOON:009:1,2019-07-12T20:24:00Z,27.8398,-97.0727,1.639,11111222 
TCOON,ioos:station:TCOON:009:1,2019-07-12T21:24:00Z,27.8398,-97.0727,1.6,11111222 
TCOON,ioos:station:TCOON:009:1,2019-07-12T22:24:00Z,27.8398,-97.0727,1.574,11111222 
TCOON,ioos:station:TCOON:009:1,2019-07-12T23:24:00Z,27.8398,-97.0727,1.498,11111222 
TCOON,ioos:station:TCOON:009:1,2019-07-13T00:24:00Z,27.8398,-97.0727,1.536,11111222 
TCOON,ioos:station:TCOON:009:1,2019-07-13T01:24:00Z,27.8398,-97.0727,1.574,11111222 
TCOON,ioos:station:TCOON:009:1,2019-07-13T02:24:00Z,27.8398,-97.0727,1.574,11111222 
TCOON,ioos:station:TCOON:009:1,2019-07-13T03:24:00Z,27.8398,-97.0727,1.704,11111222 
TCOON,ioos:station:TCOON:009:1,2019-07-13T04:24:00Z,27.8398,-97.0727,1.789,11111222 
TCOON,ioos:station:TCOON:009:1,2019-07-13T05:24:00Z,27.8398,-97.0727,1.778,11111222 
TCOON,ioos:station:TCOON:009:1,2019-07-13T06:24:00Z,27.8398,-97.0727,1.775,11111222 
TCOON,ioos:station:TCOON:009:1,2019-07-13T07:24:00Z,27.8398,-97.0727,1.845,11111222 
TCOON,ioos:station:TCOON:009:1,2019-07-13T08:24:00Z,27.8398,-97.0727,1.833,11111222 
TCOON,ioos:station:TCOON:009:1,2019-07-13T09:24:00Z,27.8398,-97.0727,1.87,11111222 
TCOON,ioos:station:TCOON:009:1,2019-07-13T10:24:00Z,27.8398,-97.0727,1.855,11111222 
TCOON,ioos:station:TCOON:009:1,2019-07-13T11:24:00Z,27.8398,-97.0727,1.852,11111222 
TCOON,ioos:station:TCOON:009:1,2019-07-13T12:24:00Z,27.8398,-97.0727,1.845,11111222 
TCOON,ioos:station:TCOON:009:1,2019-07-13T13:24:00Z,27.8398,-97.0727,1.837,11111222 
TCOON,ioos:station:TCOON:009:1,2019-07-13T14:24:00Z,27.8398,-97.0727,1.844,11111222 
TCOON,ioos:station:TCOON:009:1,2019-07-13T15:24:00Z,27.8398,-97.0727,1.861,11111222 
TCOON,ioos:station:TCOON:009:1,2019-07-13T16:24:00Z,27.8398,-97.0727,1.843,11111222 
TCOON,ioos:station:TCOON:009:1,2019-07-13T17:24:00Z,27.8398,-97.0727,1.816,11111222 
TCOON,ioos:station:TCOON:009:1,2019-07-13T18:24:00Z,27.8398,-97.0727,1.793,11111222 
TCOON,ioos:station:TCOON:009:1,2019-07-13T19:24:00Z,27.8398,-97.0727,1.784,11111222 
TCOON,ioos:station:TCOON:009:1,2019-07-13T20:24:00Z,27.8398,-97.0727,1.696,11111222 
TCOON,ioos:station:TCOON:009:1,2019-07-13T21:24:00Z,27.8398,-97.0727,1.61,11111222 
TCOON,ioos:station:TCOON:009:1,2019-07-13T22:24:00Z,27.8398,-97.0727,1.547,11111222 
TCOON,ioos:station:TCOON:009:1,2019-07-13T23:24:00Z,27.8398,-97.0727,1.507,11111222 
TCOON,ioos:station:TCOON:009:1,2019-07-14T00:24:00Z,27.8398,-97.0727,1.466,11111222 
TCOON,ioos:station:TCOON:009:1,2019-07-14T01:24:00Z,27.8398,-97.0727,1.417,11111222 
TCOON,ioos:station:TCOON:009:1,2019-07-14T02:24:00Z,27.8398,-97.0727,1.437,11111222 
TCOON,ioos:station:TCOON:009:1,2019-07-14T03:24:00Z,27.8398,-97.0727,1.489,11111222 
TCOON,ioos:station:TCOON:009:1,2019-07-14T04:24:00Z,27.8398,-97.0727,1.56,11111222 
TCOON,ioos:station:TCOON:009:1,2019-07-14T05:24:00Z,27.8398,-97.0727,1.648,11111222 
TCOON,ioos:station:TCOON:009:1,2019-07-14T06:24:00Z,27.8398,-97.0727,1.647,11111222 
TCOON,ioos:station:TCOON:009:1,2019-07-14T07:24:00Z,27.8398,-97.0727,1.716,11111222 
TCOON,ioos:station:TCOON:009:1,2019-07-14T08:24:00Z,27.8398,-97.0727,1.73,11111222 
TCOON,ioos:station:TCOON:009:1,2019-07-14T09:24:00Z,27.8398,-97.0727,1.716,11111222 
TCOON,ioos:station:TCOON:009:1,2019-07-14T10:24:00Z,27.8398,-97.0727,1.722,11111222 
TCOON,ioos:station:TCOON:009:1,2019-07-14T11:24:00Z,27.8398,-97.0727,1.7,11111222 
TCOON,ioos:station:TCOON:009:1,2019-07-14T12:24:00Z,27.8398,-97.0727,1.675,11111222 
TCOON,ioos:station:TCOON:009:1,2019-07-14T13:24:00Z,27.8398,-97.0727,1.687,11111222 
TCOON,ioos:station:TCOON:009:1,2019-07-14T14:24:00Z,27.8398,-97.0727,1.683,11111222 
TCOON,ioos:station:TCOON:009:1,2019-07-14T15:24:00Z,27.8398,-97.0727,1.673,11111222 
TCOON,ioos:station:TCOON:009:1,2019-07-14T16:24:00Z,27.8398,-97.0727,1.673,11111222 
TCOON,ioos:station:TCOON:009:1,2019-07-14T17:24:00Z,27.8398,-97.0727,1.655,11111222 
TCOON,ioos:station:TCOON:009:1,2019-07-14T18:24:00Z,27.8398,-97.0727,1.607,11111222 
TCOON,ioos:station:TCOON:009:1,2019-07-14T19:24:00Z,27.8398,-97.0727,1.581,11111222 
TCOON,ioos:station:TCOON:009:1,2019-07-14T20:24:00Z,27.8398,-97.0727,1.521,11111222 
TCOON,ioos:station:TCOON:009:1,2019-07-14T21:24:00Z,27.8398,-97.0727,1.45,11111222 
TCOON,ioos:station:TCOON:009:1,2019-07-14T22:24:00Z,27.8398,-97.0727,1.377,11111222 
TCOON,ioos:station:TCOON:009:1,2019-07-14T23:24:00Z,27.8398,-97.0727,1.312,11111222 
TCOON,ioos:station:TCOON:009:1,2019-07-15T00:24:00Z,27.8398,-97.0727,1.31,11111222 
TCOON,ioos:station:TCOON:009:1,2019-07-15T01:24:00Z,27.8398,-97.0727,1.241,11111222 
TCOON,ioos:station:TCOON:009:1,2019-07-15T02:24:00Z,27.8398,-97.0727,1.216,11111222 
TCOON,ioos:station:TCOON:009:1,2019-07-15T03:24:00Z,27.8398,-97.0727,1.297,11111222 
TCOON,ioos:station:TCOON:009:1,2019-07-15T04:24:00Z,27.8398,-97.0727,1.433,11111222 
TCOON,ioos:station:TCOON:009:1,2019-07-15T05:24:00Z,27.8398,-97.0727,1.376,11111222 
TCOON,ioos:station:TCOON:009:1,2019-07-15T06:24:00Z,27.8398,-97.0727,1.573,11111222 
TCOON,ioos:station:TCOON:009:1,2019-07-15T07:24:00Z,27.8398,-97.0727,1.605,11111222 
TCOON,ioos:station:TCOON:009:1,2019-07-15T08:36:00Z,27.8398,-97.0727,1.63,11111222 
TCOON,ioos:station:TCOON:009:1,2019-07-15T09:24:00Z,27.8398,-97.0727,1.648,11111222 
TCOON,ioos:station:TCOON:009:1,2019-07-15T10:24:00Z,27.8398,-97.0727,1.694,11111222 
TCOON,ioos:station:TCOON:009:1,2019-07-15T11:24:00Z,27.8398,-97.0727,1.711,11111222 
TCOON,ioos:station:TCOON:009:1,2019-07-15T12:24:00Z,27.8398,-97.0727,1.703,11111222 
TCOON,ioos:station:TCOON:009:1,2019-07-15T13:24:00Z,27.8398,-97.0727,1.744,11111222 
TCOON,ioos:station:TCOON:009:1,2019-07-15T14:24:00Z,27.8398,-97.0727,1.758,11111222 
TCOON,ioos:station:TCOON:009:1,2019-07-15T15:24:00Z,27.8398,-97.0727,1.74,11111222 
TCOON,ioos:station:TCOON:009:1,2019-07-15T16:24:00Z,27.8398,-97.0727,1.783,11111222 
TCOON,ioos:station:TCOON:009:1,2019-07-15T17:24:00Z,27.8398,-97.0727,1.767,11111222 
TCOON,ioos:station:TCOON:009:1,2019-07-15T18:24:00Z,27.8398,-97.0727,1.742,11111222 
TCOON,ioos:station:TCOON:009:1,2019-07-15T19:24:00Z,27.8398,-97.0727,1.754,11111222 
TCOON,ioos:station:TCOON:009:1,2019-07-15T20:24:00Z,27.8398,-97.0727,1.71,11111222 
TCOON,ioos:station:TCOON:009:1,2019-07-15T21:24:00Z,27.8398,-97.0727,1.66,11111222 
TCOON,ioos:station:TCOON:009:1,2019-07-15T22:24:00Z,27.8398,-97.0727,1.647,11111222 
TCOON,ioos:station:TCOON:009:1,2019-07-15T23:24:00Z,27.8398,-97.0727,1.508,11111222 
TCOON,ioos:station:TCOON:009:1,2019-07-16T00:24:00Z,27.8398,-97.0727,1.495,11111222 
TCOON,ioos:station:TCOON:009:1,2019-07-16T01:24:00Z,27.8398,-97.0727,1.434,11111222 
TCOON,ioos:station:TCOON:009:1,2019-07-16T02:24:00Z,27.8398,-97.0727,1.414,11111222 
TCOON,ioos:station:TCOON:009:1,2019-07-16T03:24:00Z,27.8398,-97.0727,1.468,11111222 
TCOON,ioos:station:TCOON:009:1,2019-07-16T04:24:00Z,27.8398,-97.0727,1.507,11111222 
TCOON,ioos:station:TCOON:009:1,2019-07-16T05:24:00Z,27.8398,-97.0727,1.587,11111222 
TCOON,ioos:station:TCOON:009:1,2019-07-16T06:24:00Z,27.8398,-97.0727,1.618,11111222 
TCOON,ioos:station:TCOON:009:1,2019-07-16T07:24:00Z,27.8398,-97.0727,1.715,11111222 
TCOON,ioos:station:TCOON:009:1,2019-07-16T08:24:00Z,27.8398,-97.0727,1.761,11111222 
TCOON,ioos:station:TCOON:009:1,2019-07-16T09:24:00Z,27.8398,-97.0727,1.776,11111222 
TCOON,ioos:station:TCOON:009:1,2019-07-16T10:24:00Z,27.8398,-97.0727,1.804,11111222 
TCOON,ioos:station:TCOON:009:1,2019-07-16T11:24:00Z,27.8398,-97.0727,1.822,11111222 
TCOON,ioos:station:TCOON:009:1,2019-07-16T12:24:00Z,27.8398,-97.0727,1.825,11111222 
TCOON,ioos:station:TCOON:009:1,2019-07-16T13:24:00Z,27.8398,-97.0727,1.837,11111222 
TCOON,ioos:station:TCOON:009:1,2019-07-16T14:24:00Z,27.8398,-97.0727,1.836,11111222 
TCOON,ioos:station:TCOON:009:1,2019-07-16T15:24:00Z,27.8398,-97.0727,1.842,11111222 
TCOON,ioos:station:TCOON:009:1,2019-07-16T16:24:00Z,27.8398,-97.0727,1.857,11111222 
TCOON,ioos:station:TCOON:009:1,2019-07-16T17:24:00Z,27.8398,-97.0727,1.849,11111222 
TCOON,ioos:station:TCOON:009:1,2019-07-16T18:24:00Z,27.8398,-97.0727,1.82,11111222 
TCOON,ioos:station:TCOON:009:1,2019-07-16T19:24:00Z,27.8398,-97.0727,1.799,11111222 
TCOON,ioos:station:TCOON:009:1,2019-07-16T20:24:00Z,27.8398,-97.0727,1.8,11111222 
TCOON,ioos:station:TCOON:009:1,2019-07-16T21:24:00Z,27.8398,-97.0727,1.768,11111222 
TCOON,ioos:station:TCOON:009:1,2019-07-16T22:24:00Z,27.8398,-97.0727,1.693,11111222 
TCOON,ioos:station:TCOON:009:1,2019-07-16T23:24:00Z,27.8398,-97.0727,1.61,11111222 
TCOON,ioos:station:TCOON:009:1,2019-07-17T00:24:00Z,27.8398,-97.0727,1.576,11111222 
TCOON,ioos:station:TCOON:009:1,2019-07-17T01:24:00Z,27.8398,-97.0727,1.529,11111222 
TCOON,ioos:station:TCOON:009:1,2019-07-17T02:24:00Z,27.8398,-97.0727,1.5,11111222 
TCOON,ioos:station:TCOON:009:1,2019-07-17T03:24:00Z,27.8398,-97.0727,1.541,11111222 
TCOON,ioos:station:TCOON:009:1,2019-07-17T04:24:00Z,27.8398,-97.0727,1.523,11111222 
TCOON,ioos:station:TCOON:009:1,2019-07-17T05:24:00Z,27.8398,-97.0727,1.573,11111222 
TCOON,ioos:station:TCOON:009:1,2019-07-17T06:24:00Z,27.8398,-97.0727,1.658,11111222 
TCOON,ioos:station:TCOON:009:1,2019-07-17T07:24:00Z,27.8398,-97.0727,1.745,11111222 
TCOON,ioos:station:TCOON:009:1,2019-07-17T08:24:00Z,27.8398,-97.0727,1.82,11111222 
TCOON,ioos:station:TCOON:009:1,2019-07-17T09:24:00Z,27.8398,-97.0727,1.82,11111222 
TCOON,ioos:station:TCOON:009:1,2019-07-17T10:24:00Z,27.8398,-97.0727,1.851,11111222 
TCOON,ioos:station:TCOON:009:1,2019-07-17T11:24:00Z,27.8398,-97.0727,1.887,11111222 
TCOON,ioos:station:TCOON:009:1,2019-07-17T12:24:00Z,27.8398,-97.0727,1.905,11111222 
TCOON,ioos:station:TCOON:009:1,2019-07-17T13:24:00Z,27.8398,-97.0727,1.878,11111222 
TCOON,ioos:station:TCOON:009:1,2019-07-17T14:24:00Z,27.8398,-97.0727,1.899,11111222 
TCOON,ioos:station:TCOON:009:1,2019-07-17T15:24:00Z,27.8398,-97.0727,1.908,11111222 
TCOON,ioos:station:TCOON:009:1,2019-07-17T16:24:00Z,27.8398,-97.0727,1.915,11111222 
TCOON,ioos:station:TCOON:009:1,2019-07-17T17:24:00Z,27.8398,-97.0727,1.908,11111222 
TCOON,ioos:station:TCOON:009:1,2019-07-18T16:24:00Z,27.8398,-97.0727,1.922,11111222 
TCOON,ioos:station:TCOON:009:1,2019-07-18T17:24:00Z,27.8398,-97.0727,1.903,11111222 
TCOON,ioos:station:TCOON:009:1,2019-07-18T18:24:00Z,27.8398,-97.0727,1.906,11111222 
TCOON,ioos:station:TCOON:009:1,2019-07-18T19:24:00Z,27.8398,-97.0727,1.918,11111222 
TCOON,ioos:station:TCOON:009:1,2019-07-18T20:24:00Z,27.8398,-97.0727,1.892,11111222 
TCOON,ioos:station:TCOON:009:1,2019-07-18T21:24:00Z,27.8398,-97.0727,1.873,11111222 
TCOON,ioos:station:TCOON:009:1,2019-07-18T22:24:00Z,27.8398,-97.0727,1.846,11111222 
TCOON,ioos:station:TCOON:009:1,2019-07-18T23:24:00Z,27.8398,-97.0727,1.776,11111222 
TCOON,ioos:station:TCOON:009:1,2019-07-19T00:24:00Z,27.8398,-97.0727,1.708,11111222 
TCOON,ioos:station:TCOON:009:1,2019-07-19T01:24:00Z,27.8398,-97.0727,1.648,11111222 
TCOON,ioos:station:TCOON:009:1,2019-07-19T02:24:00Z,27.8398,-97.0727,1.589,11111222 
TCOON,ioos:station:TCOON:009:1,2019-07-19T03:24:00Z,27.8398,-97.0727,1.561,11111222 
TCOON,ioos:station:TCOON:009:1,2019-07-19T04:24:00Z,27.8398,-97.0727,1.551,11111222 
TCOON,ioos:station:TCOON:009:1,2019-07-19T05:24:00Z,27.8398,-97.0727,1.584,11111222 
TCOON,ioos:station:TCOON:009:1,2019-07-19T06:24:00Z,27.8398,-97.0727,1.616,11111222 
TCOON,ioos:station:TCOON:009:1,2019-07-19T07:24:00Z,27.8398,-97.0727,1.66,11111222 
TCOON,ioos:station:TCOON:009:1,2019-07-19T08:24:00Z,27.8398,-97.0727,1.748,11111222 
TCOON,ioos:station:TCOON:009:1,2019-07-19T09:24:00Z,27.8398,-97.0727,1.784,11111222 
TCOON,ioos:station:TCOON:009:1,2019-07-19T10:24:00Z,27.8398,-97.0727,1.822,11111222 
TCOON,ioos:station:TCOON:009:1,2019-07-19T11:24:00Z,27.8398,-97.0727,1.854,11111222 
TCOON,ioos:station:TCOON:009:1,2019-07-19T12:24:00Z,27.8398,-97.0727,1.87,11111222 
TCOON,ioos:station:TCOON:009:1,2019-07-19T13:24:00Z,27.8398,-97.0727,1.863,11111222 
TCOON,ioos:station:TCOON:009:1,2019-07-19T14:24:00Z,27.8398,-97.0727,1.889,11111222 
TCOON,ioos:station:TCOON:009:1,2019-07-19T15:24:00Z,27.8398,-97.0727,1.878,11111222 
TCOON,ioos:station:TCOON:009:1,2019-07-19T16:24:00Z,27.8398,-97.0727,1.899,11111222 
TCOON,ioos:station:TCOON:009:1,2019-07-19T17:24:00Z,27.8398,-97.0727,1.885,11111222 
TCOON,ioos:station:TCOON:009:1,2019-07-19T18:24:00Z,27.8398,-97.0727,1.88,11111222 
TCOON,ioos:station:TCOON:009:1,2019-07-19T19:24:00Z,27.8398,-97.0727,1.9,11111222 
TCOON,ioos:station:TCOON:009:1,2019-07-19T20:24:00Z,27.8398,-97.0727,1.905,11111222 
TCOON,ioos:station:TCOON:009:1,2019-07-19T21:24:00Z,27.8398,-97.0727,1.841,11111222 
TCOON,ioos:station:TCOON:009:1,2019-07-19T22:24:00Z,27.8398,-97.0727,1.853,11111222 
TCOON,ioos:station:TCOON:009:1,2019-07-19T23:24:00Z,27.8398,-97.0727,1.818,11111222 
TCOON,ioos:station:TCOON:009:1,2019-07-20T00:24:00Z,27.8398,-97.0727,1.776,11111222 
TCOON,ioos:station:TCOON:009:1,2019-07-20T01:24:00Z,27.8398,-97.0727,1.699,11111222 
TCOON,ioos:station:TCOON:009:1,2019-07-20T02:24:00Z,27.8398,-97.0727,1.654,11111222 
TCOON,ioos:station:TCOON:009:1,2019-07-20T03:24:00Z,27.8398,-97.0727,1.632,11111222 
TCOON,ioos:station:TCOON:009:1,2019-07-20T04:24:00Z,27.8398,-97.0727,1.596,11111222 
TCOON,ioos:station:TCOON:009:1,2019-07-20T05:24:00Z,27.8398,-97.0727,1.584,11111222 
TCOON,ioos:station:TCOON:009:1,2019-07-20T06:24:00Z,27.8398,-97.0727,1.636,11111222 
TCOON,ioos:station:TCOON:009:1,2019-07-20T07:24:00Z,27.8398,-97.0727,1.646,11111222 
TCOON,ioos:station:TCOON:009:1,2019-07-20T08:24:00Z,27.8398,-97.0727,1.705,11111222 
TCOON,ioos:station:TCOON:009:1,2019-07-20T09:24:00Z,27.8398,-97.0727,1.766,11111222 
TCOON,ioos:station:TCOON:009:1,2019-07-20T10:24:00Z,27.8398,-97.0727,1.801,11111222 
TCOON,ioos:station:TCOON:009:1,2019-07-20T11:24:00Z,27.8398,-97.0727,1.83,11111222 
TCOON,ioos:station:TCOON:009:1,2019-07-20T12:24:00Z,27.8398,-97.0727,1.874,11111222 
TCOON,ioos:station:TCOON:009:1,2019-07-20T13:24:00Z,27.8398,-97.0727,1.876,11111222 
TCOON,ioos:station:TCOON:009:1,2019-07-20T14:24:00Z,27.8398,-97.0727,1.837,11111222 
TCOON,ioos:station:TCOON:009:1,2019-07-20T15:24:00Z,27.8398,-97.0727,1.854,11111222 
TCOON,ioos:station:TCOON:009:1,2019-07-20T16:24:00Z,27.8398,-97.0727,1.845,11111222 
TCOON,ioos:station:TCOON:009:1,2019-07-20T17:24:00Z,27.8398,-97.0727,1.862,11111222 
TCOON,ioos:station:TCOON:009:1,2019-07-20T18:24:00Z,27.8398,-97.0727,1.826,11111222 
TCOON,ioos:station:TCOON:009:1,2019-07-20T19:24:00Z,27.8398,-97.0727,1.847,11111222 
TCOON,ioos:station:TCOON:009:1,2019-07-20T20:24:00Z,27.8398,-97.0727,1.843,11111222 
TCOON,ioos:station:TCOON:009:1,2019-07-20T21:24:00Z,27.8398,-97.0727,1.828,11111222 
TCOON,ioos:station:TCOON:009:1,2019-07-20T22:24:00Z,27.8398,-97.0727,1.83,11111222 
TCOON,ioos:station:TCOON:009:1,2019-07-20T23:24:00Z,27.8398,-97.0727,1.807,11111222 
TCOON,ioos:station:TCOON:009:1,2019-07-21T00:24:00Z,27.8398,-97.0727,1.753,11111222 
TCOON,ioos:station:TCOON:009:1,2019-07-21T01:24:00Z,27.8398,-97.0727,1.729,11111222 
TCOON,ioos:station:TCOON:009:1,2019-07-21T02:24:00Z,27.8398,-97.0727,1.703,11111222 
TCOON,ioos:station:TCOON:009:1,2019-07-21T03:24:00Z,27.8398,-97.0727,1.653,11111222 
TCOON,ioos:station:TCOON:009:1,2019-07-21T04:24:00Z,27.8398,-97.0727,1.639,11111222 
TCOON,ioos:station:TCOON:009:1,2019-07-21T05:24:00Z,27.8398,-97.0727,1.67,11111222 
TCOON,ioos:station:TCOON:009:1,2019-07-21T06:24:00Z,27.8398,-97.0727,1.626,11111222 
TCOON,ioos:station:TCOON:009:1,2019-07-21T07:24:00Z,27.8398,-97.0727,1.604,11111222 
TCOON,ioos:station:TCOON:009:1,2019-07-21T08:24:00Z,27.8398,-97.0727,1.694,11111222 
TCOON,ioos:station:TCOON:009:1,2019-07-21T09:24:00Z,27.8398,-97.0727,1.747,11111222 
TCOON,ioos:station:TCOON:009:1,2019-07-21T10:24:00Z,27.8398,-97.0727,1.803,11111222 
TCOON,ioos:station:TCOON:009:1,2019-07-21T11:24:00Z,27.8398,-97.0727,1.784,11111222 
TCOON,ioos:station:TCOON:009:1,2019-07-21T12:24:00Z,27.8398,-97.0727,1.834,11111222 
TCOON,ioos:station:TCOON:009:1,2019-07-21T13:24:00Z,27.8398,-97.0727,1.851,11111222 
TCOON,ioos:station:TCOON:009:1,2019-07-21T14:24:00Z,27.8398,-97.0727,1.808,11111222 
TCOON,ioos:station:TCOON:009:1,2019-07-21T15:24:00Z,27.8398,-97.0727,1.825,11111222 
TCOON,ioos:station:TCOON:009:1,2019-07-21T16:24:00Z,27.8398,-97.0727,1.857,11111222 
TCOON,ioos:station:TCOON:009:1,2019-07-21T17:24:00Z,27.8398,-97.0727,1.814,11111222 
TCOON,ioos:station:TCOON:009:1,2019-07-21T18:24:00Z,27.8398,-97.0727,1.853,11111222 
TCOON,ioos:station:TCOON:009:1,2019-07-21T19:24:00Z,27.8398,-97.0727,1.842,11111222 
TCOON,ioos:station:TCOON:009:1,2019-07-21T20:24:00Z,27.8398,-97.0727,1.795,11111222 
TCOON,ioos:station:TCOON:009:1,2019-07-21T21:24:00Z,27.8398,-97.0727,1.758,11111222 
TCOON,ioos:station:TCOON:009:1,2019-07-21T22:24:00Z,27.8398,-97.0727,1.826,11111222 
TCOON,ioos:station:TCOON:009:1,2019-07-21T23:24:00Z,27.8398,-97.0727,1.838,11111222 
TCOON,ioos:station:TCOON:009:1,2019-07-22T00:24:00Z,27.8398,-97.0727,1.805,11111222 
TCOON,ioos:station:TCOON:009:1,2019-07-22T01:24:00Z,27.8398,-97.0727,1.748,11111222 
TCOON,ioos:station:TCOON:009:1,2019-07-22T02:24:00Z,27.8398,-97.0727,1.723,11111222 
TCOON,ioos:station:TCOON:009:1,2019-07-22T03:24:00Z,27.8398,-97.0727,1.774,11111222 